Regional Weather Roundup
Issued by NWS

Home | Current Version | Previous Version | Graphics & Text | Print | Product List | Glossary On
Versions: 1 2 3 4 5 6 7 8 9 10 11 12 13 14 15 16 17 18 19 20 21 22 23 24 25 26 27 28 29 30 31 32 33 34 35 36 37 38 39 40 41 42 43 44 45 46 47 48 49 50
000
ASUS43 KIND 081309
RWRIN

WEATHER ROUNDUP FOR INDIANA
NATIONAL WEATHER SERVICE INDIANAPOLIS IN
800 AM EST THU DEC 08 2016

NOTE: "FAIR" INDICATES FEW OR NO CLOUDS BELOW 12,000 FEET WITH NO
SIGNIFICANT WEATHER AND/OR OBSTRUCTIONS TO VISIBILITY.

* - STATION DOES NOT REPORT WEATHER SUCH AS PRECIPITATION OR FOG.

+ - STATION NOT QUALITY CONTROLLED BY THE NATIONAL WEATHER SERVICE.
    USE DATA WITH CAUTION...ESPECIALLY DEWPOINT AND RELATIVE
    HUMIDITY OBSERVATIONS.

INZ001>003-010>013-019-020-081400-
NORTHWEST INDIANA

CITY           SKY/WX    TMP DP  RH WIND       PRES   REMARKS
GARY /AIRPORT/ CLOUDY    23  14  68 W12G23    30.22R WCI  12
KNOX *+        CLOUDY    21  -4  33 W21G26    30.20S WCI   6
LA PORTE +     FLURRIES  21  14  74 W16       30.18R WCI   7
MICHIGAN CITY+ CLOUDY    25  18  74 W14G24    30.18R WCI  13
MONTICELLO +   FLURRIES  21  11  65 W16G24    30.25R WCI   7
RENSSELAER +     N/A     23  18  80 W21G30    30.24R WCI   8
VALPARAISO     FLURRIES  22  13  68 W16       30.20R WCI   8

$$

LMZ046-743>745-081400-
SOUTHERN LAKE MICHIGAN

STATION/POSITION TIME  TEMP    WIND        PRES    WAVE
                       AIR SEA DIR/SP/G            HT
                 (UTC) (F)     (DEG/KT/KT) (MB)    (FT)

$$

INZ004-005-014>016-021>024-081400-
NORTH CENTRAL INDIANA

CITY           SKY/WX    TMP DP  RH WIND       PRES   REMARKS
ELKHART        FLURRIES  23  16  74 W16G24    30.13R WCI  10
GOSHEN         CLOUDY    23  14  68 W17G24    30.14R WCI   9
LOGANSPORT +   FLURRIES  21  14  73 W16G26    30.24R WCI   7
PERU/GRISSOM   FLURRIES  21  14  73 W21       30.20R WCI   6
ROCHESTER +    FLURRIES  25  19  80 W14G21    30.20R WCI  13
SOUTH BEND     FLURRIES  21  15  78 W15       30.15R WCI   8
WARSAW +       FLURRIES  21  12  68 W21       30.17R WCI   6

$$

INZ006>009-017-018-025>027-081400-
NORTHEAST INDIANA

CITY           SKY/WX    TMP DP  RH WIND       PRES   REMARKS
ANGOLA *+      CLOUDY    23  16  74 W14       30.09R WCI  11
AUBURN +       FLURRIES  25  16  68 W17G23    30.14R WCI  11
FORT WAYNE     FLURRIES  24  16  71 W21G26    30.15S WCI   9
HUNTINGTON +   CLOUDY    22  13  68 W17G26    30.17R WCI   8
KENDALLVILLE + FLURRIES  23  16  74 W17G24    30.11S WCI   9

$$

INZ028-029-035-036-043>045-051>053-081400-
WEST CENTRAL INDIANA

CITY           SKY/WX    TMP DP  RH WIND       PRES   REMARKS
CRAWFORDSVL +  CLOUDY    19  14  82 W13G21    30.28R WCI   6
GREENCASTLE +  PTCLDY    19  16  86 W9        30.29S WCI   9
LAFAYETTE      CLOUDY    20  13  74 W15       30.27R WCI   6
TERRE HAUTE    PTCLDY    22  13  68 W12G21    30.33R WCI  10

$$

INZ030>032-037>040-046>048-054>057-064-065-081400-
CENTRAL INDIANA

CITY           SKY/WX    TMP DP  RH WIND       PRES   REMARKS
CP ATTERBURY + PTCLDY    23  14  68 W8        30.29S WCI  14
COLUMBUS       CLEAR     21  16  79 W16       30.30R WCI   7
FISHERS *+     MOCLDY    19  16  86 W12       30.25S WCI   7
FRANKFORT +    CLOUDY    24  17  75 W23       30.26R WCI   8
GREENWOOD *+   CLEAR     22  15  74 W10G18    30.27R WCI  11
INDIANAPOLIS   PTCLDY    20  13  74 W16       30.27R WCI   6
-EAGLE CREEK   CLEAR     21  13  71 W9G18     30.26R WCI  11
KOKOMO +       FLURRIES  21  15  78 W24G32    30.22R WCI   4
MARION +       LGT SNOW  22  15  75 W23G29    30.21R WCI   6
MT COMFORT *+  PTCLDY    21  14  73 W15G21    30.25R WCI   8
SHELBYVILLE    PTCLDY    22  13  68 W15       30.26R WCI   9
ZIONSVILLE +   CLOUDY    20  14  76 W16G24    30.25S WCI   6

$$

INZ033-034-041-042-049-050-058-059-081400-
EAST CENTRAL INDIANA

CITY           SKY/WX    TMP DP  RH WIND       PRES   REMARKS
MUNCIE         CLOUDY    24  15  68 W17G24    30.20S WCI  11

$$

INZ060-061-067>069-081>083-085>088-081400-
SOUTHWEST INDIANA

CITY           SKY/WX    TMP DP  RH WIND       PRES   REMARKS
EVANSVILLE     CLEAR     25  13  60 NW8       30.40R WCI  16
HUNTINGBURG *+ PTCLDY    25  16  68 NW9       30.37R WCI  15
WASHINGTON +   CLEAR     24  17  75 W12       30.36R WCI  13

$$

INZ062-063-066-070>080-084-089>092-081400-
SOUTH CENTRAL AND SOUTHEAST INDIANA

CITY           SKY/WX    TMP DP  RH WIND       PRES   REMARKS
BLOOMINGTON    CLEAR     22  12  65 W14G20    30.30R WCI   9
MADISON *+     PTCLDY    27  18  69 W9        30.30R WCI  17
NORTH VERNON + CLEAR     27  21  80 W12       30.29R WCI  16
SEYMOUR +      CLEAR     25  14  63 W14       30.31R WCI  13

$$





USA.gov is the U.S. government's official web portal to all federal, state and local government web resources and services.